Regional Weather Roundup
Issued by NWS

Home | Current Version | Previous Version | Graphics & Text | Print | Product List | Glossary Off
Versions: 1 2 3 4 5 6 7 8 9 10 11 12 13 14 15 16 17 18 19 20 21 22 23 24 25 26 27 28 29 30 31 32 33 34 35 36 37 38 39 40 41 42 43 44 45 46 47 48 49 50

000
ASUS43 KMKX 270621
RWRWI

WISCONSIN REGIONAL WEATHER ROUNDUP
NATIONAL WEATHER SERVICE MILWAUKEE/SULLIVAN WI
1200 AM CST THU NOV 27 2014

NOTE: "FAIR" INDICATES FEW OR NO CLOUDS BELOW 12,000 FEET WITH NO
SIGNIFICANT WEATHER AND/OR OBSTRUCTIONS TO VISIBILITY.

WIZ001-002-006>008-014>016-023>028-270700-
NORTHWEST WISCONSIN

CITY           SKY/WX    TMP DP  RH WIND       PRES   REMARKS
SUPERIOR ARPT  PTCLDY     1  -4  77 N6        30.45R WCI -10
6HR MIN TEMP:   1; 6HR MAX TEMP:  15;

ASHLAND        CLOUDY    10   5  80 NW7       30.37R WCI  -1
6HR MIN TEMP:  10; 6HR MAX TEMP:  20; 6HR PCP: TRACE;

HAYWARD        CLEAR      7   2  80 N5        30.34R WCI  -2
6HR MIN TEMP:   7; 6HR MAX TEMP:  19; 6HR PCP: TRACE;

SIREN          CLEAR      6  -4  64 N9        30.40R WCI  -8
6HR MIN TEMP:   6; 6HR MAX TEMP:  21;

CUMBERLAND     PTCLDY     9   0  66 N14       30.33R WCI  -8
RICE LAKE      CLOUDY    12   5  73 NW9G16    30.35R WCI   0
6HR MIN TEMP:  12; 6HR MAX TEMP:  23;

CHETEK         CLOUDY    13   8  78 NW5       30.34R WCI   6
6HR MIN TEMP:  13; 6HR MAX TEMP:  23;

LADYSMITH      LGT SNOW  15  10  82 NW12      30.30R WCI   1
6HR MIN TEMP:  15; 6HR MAX TEMP:  24;

EAU CLAIRE     CLOUDY    17  10  74 N10       30.32R WCI   5
6HR MIN TEMP:  17; 6HR MAX TEMP:  25; 6HR PCP: TRACE;

MENOMONIE      LGT SNOW  17  11  77 NW15      30.34R WCI   3
6HR MIN TEMP:  17; 6HR MAX TEMP:  25;

NEW RICHMOND   CLEAR     10   1  65 N12       30.37R WCI  -4
6HR MIN TEMP:  10; 6HR MAX TEMP:  22;

OSCEOLA        CLEAR     10  -1  59 N12       30.42R WCI  -4
6HR MIN TEMP:  10; 6HR MAX TEMP:  23;

$$

WIZ003>005-009-010-017-018-270700-
NORTH CENTRAL WISCONSIN

CITY           SKY/WX    TMP DP  RH WIND       PRES   REMARKS
MANITOWISH WTR CLOUDY    14  10  84 N8        30.21R WCI   3
6HR MIN TEMP:  14; 6HR MAX TEMP:  20;

ARBOR VITAE    LGT SNOW  17  14  88 N7        30.20R WCI   7
6HR MIN TEMP:  14; 6HR MAX TEMP:  23;

WOODRUFF       LGT SNOW  17  14  88 N7        30.20R WCI   7
6HR MIN TEMP:  14; 6HR MAX TEMP:  23;

RHINELANDER    CLOUDY    15  11  83 VRB6      30.19R WCI   6
6HR MIN TEMP:  15; 6HR MAX TEMP:  21; 6HR PCP: TRACE;

EAGLE RIVER    FLURRIES  15  10  79 N7        30.19R WCI   5
6HR MIN TEMP:  15; 6HR MAX TEMP:  21;

LAND O LAKES   LGT SNOW  15  12  86 N9        30.20R WCI   3
6HR MIN TEMP:  15; 6HR MAX TEMP:  22;

PHILLIPS       FLURRIES  13   9  82 NW7G18    30.23R WCI   3
6HR MIN TEMP:  13; 6HR MAX TEMP:  21;

TOMAHAWK       LGT SNOW  17  14  88 CALM      30.21R
6HR MIN TEMP:  17; 6HR MAX TEMP:  22;

MEDFORD        CLOUDY    17  13  84 NW13      30.22R WCI   3
6HR MIN TEMP:  17; 6HR MAX TEMP:  22;

MERRILL        LGT SNOW  19  15  86 NW5       30.21R WCI  12
6HR MIN TEMP:  19; 6HR MAX TEMP:  23;

$$

WIZ029-030-035-036-043>047-270700-
CENTRAL WISCONSIN

CITY           SKY/WX    TMP DP  RH WIND       PRES   REMARKS
WAUSAU         CLOUDY    20  15  81 NW7       30.20R WCI  11
6HR MIN TEMP:  20; 6HR MAX TEMP:  24; 6HR PCP: TRACE;

MOSINEE        CLOUDY    21  19  93 NW9       30.21S WCI  11
MARSHFIELD     LGT SNOW  20  14  77 NW10      30.22R WCI   9
6HR MIN TEMP:  19; 6HR MAX TEMP:  24; 6HR PCP: TRACE;

STEVENS POINT  CLOUDY    19  15  84 NW8       30.22S WCI   9
6HR MIN TEMP:  19; 6HR MAX TEMP:  22;

WAUPACA        CLOUDY    25  22  86 NW6       30.22R WCI  18
6HR MIN TEMP:  17; 6HR MAX TEMP:  26;

WAUTOMA        CLOUDY    24  20  85 NW7       30.23R WCI  16
6HR MIN TEMP:  15; 6HR MAX TEMP:  24; 6HR PCP: TRACE;

WISC RAPIDS    CLOUDY    22  15  75 NW13      30.24R WCI  10
6HR MIN TEMP:  21; 6HR MAX TEMP:  24; 6HR PCP: TRACE;

CAMP DOUGLAS   MIX PCPN  23  23 100 NW8       30.25R WCI  14
                                      6HR PCP: TRACE;

$$

WIZ011>013-019>022-031-037>040-048>050-270700-
NORTHEAST WISCONSIN

CITY           SKY/WX    TMP DP  RH WIND       PRES   REMARKS
ANTIGO         CLOUDY    19  14  81 NW9       30.17S WCI   8
6HR MIN TEMP:  19; 6HR MAX TEMP:  21;

SHAWANO        CLOUDY    25  21  85 W3        30.21R
6HR MIN TEMP:  23; 6HR MAX TEMP:  25;

OCONTO         CLOUDY    22  20  93 W3        30.19S
6HR MIN TEMP:  18; 6HR MAX TEMP:  22;

STURGEON BAY   CLOUDY    27  21  80 N14       30.17S WCI  15
6HR MIN TEMP:  21; 6HR MAX TEMP:  27;

GREEN BAY      LGT SNOW  24  21  88 NW7       30.20S FOG     WCI  16
6HR MIN TEMP:  15; 6HR MAX TEMP:  24; 6HR PCP: TRACE;

MANITOWOC      LGT SNOW  21  20  96 NW8       30.19S FOG     WCI  11
6HR MIN TEMP:  16; 6HR MAX TEMP:  21; 6HR PCP: TRACE;

APPLETON       LGT SNOW  21  21 100 W7        30.20R WCI  13
CLINTONVILLE   CLOUDY    23  19  86 NW6       30.20S WCI  16
OSHKOSH        LGT SNOW  22  18  85 MISG      30.20S FOG
6HR MIN TEMP:  18; 6HR MAX TEMP:  22; 6HR PCP: TRACE;

$$

WIZ032>034-041-042-053>061-270700-
SOUTHWEST WISCONSIN

CITY           SKY/WX    TMP DP  RH WIND       PRES   REMARKS
LA CROSSE      CLOUDY    25  18  74 NW9       30.30R WCI  15
6HR MIN TEMP:  20; 6HR MAX TEMP:  26; 6HR PCP:  0.01;

SPARTA         FLURRIES  23  19  84 NW7       30.28R WCI  15
6HR MIN TEMP:  22; 6HR MAX TEMP:  25;

VIROQUA        CLOUDY    22  20  93 NW12G17   30.24R WCI  11
6HR MIN TEMP:  21; 6HR MAX TEMP:  25;

BOSCOBEL       CLOUDY    22  18  85 CALM      30.29R
6HR MIN TEMP:  20; 6HR MAX TEMP:  23; 6HR PCP: TRACE;

PRAIRIE DU CHI CLOUDY    25  20  82 NW7       30.30R WCI  17
6HR MIN TEMP:  25; 6HR MAX TEMP:  26;

PLATTEVILLE    MOCLDY    23  21  92 NW9       30.25R WCI  13
6HR MIN TEMP:  20; 6HR MAX TEMP:  23;

$$

WIZ056-057-062-063-064-067-068-270700-
SOUTH CENTRAL WISCONSIN

CITY           SKY/WX    TMP DP  RH WIND       PRES   REMARKS
REEDSBURG      CLOUDY    20  19  93 W3        30.24R
6HR MIN TEMP:  17; 6HR MAX TEMP:  20;

BARABOO/DELLS  CLOUDY    21  19  94 NW3       30.23R
6HR MIN TEMP:  14; 6HR MAX TEMP:  21;

LONE ROCK      CLOUDY    24  18  77 W7        30.26R WCI  16
6HR MIN TEMP:  19; 6HR MAX TEMP:  24; 6HR PCP: TRACE;

MINERAL POINT  LGT SNOW  25  21  86 NW7       30.23R WCI  17
MADISON        CLOUDY    19  16  88 CALM      30.23R FOG
6HR MIN TEMP:  14; 6HR MAX TEMP:  19;

MIDDLETON      CLOUDY    21  19  93 W7        30.23R WCI  12
6HR MIN TEMP:  13; 6HR MAX TEMP:  21;

WATERTOWN      CLOUDY    15  14  97 CALM      30.21R FOG
6HR MIN TEMP:  12; 6HR MAX TEMP:  22;

MONROE         PTCLDY    19  19 100 W7        30.22R FOG     WCI  10
JANESVILLE     FOG       14  12  92 CALM      30.22R VSB 1
$$

WIZ051-052-058>065-066-070>072-270700-
SOUTHEAST WISCONSIN

CITY           SKY/WX    TMP DP  RH WIND       PRES   REMARKS
MILWAUKEE      PTCLDY    22  15  75 NW9       30.19R WCI  12
6HR MIN TEMP:  22; 6HR MAX TEMP:  30;

WAUKESHA       CLEAR     18  18 100 W12       30.20S FOG     WCI   5
MILWAUKEE/TIMM PTCLDY    19  16  86 W6        30.20S FOG     WCI  11
RACINE         PTCLDY    22  16  78 NW7       30.20R WCI  13
6HR MIN TEMP:  22; 6HR MAX TEMP:  29;

BURLINGTON     CLEAR     16  14  92 NW6       30.20R WCI   7
6HR MIN TEMP:  16; 6HR MAX TEMP:  22;

KENOSHA        CLOUDY    23  18  81 NW8       30.18R WCI  14
6HR MIN TEMP:  23; 6HR MAX TEMP:  28;

FOND DU LAC    LGT SNOW  21  17  84 W8        30.21R FOG     WCI  11
6HR MIN TEMP:  17; 6HR MAX TEMP:  21; 6HR PCP: TRACE;

SHEBOYGAN      LGT SNOW  21  18  88 W8        30.20R FOG     WCI  11
6HR MIN TEMP:  16; 6HR MAX TEMP:  21;

WEST BEND      CLOUDY    19  18  93 W3        30.19S
JUNEAU         CLOUDY    17  15  93 W3        30.22R FOG
6HR MIN TEMP:  14; 6HR MAX TEMP:  21;

$$

LSZ147-162-270700-
LAKE SUPERIOR

STATION/POSITION TIME  TEMP    WIND        PRES    WAVE
                       AIR SEA DIR/SP/G            HT/PER
                 (UTC) (F)     (DEG/KT/KT) (MB)    (FT/S)
DEVILS ISLAND    0600   10     350/ 18/ 21 1030.4R
PORT WING        0500   11     340/ 14/ 18 1029.1
SAXON HARBOR     0500   19     340/ 16/ 19 1026.4R
$$

LMZ867-665-643>646-270700-
LAKE MICHIGAN

STATION/POSITION TIME  TEMP    WIND        PRES    WAVE


USA.gov is the U.S. government's official web portal to all federal, state and local government web resources and services.